ARIANE 2 DEB, 28566

Orbit data source: Space-Track

ARIANE 2 DEB, 28566 is space debris in HEO originally from a launch on Fri, 27 Jan 1989 UTC launched from the French Guiana (FRGUI). Debris objects in space refer to the collection of defunct objects orbiting the Earth. Examples of debris include non-operational satellites, rocket bodies, and fragments generated from explosions, collisions, or faulty payload assembly.

Loading next visibility...
Identifier
28566, 1989-006AH
Orbit
HEO
Country
Flag of FRFR
Related business
Manufacturer
EADS/LV
Mission
Spacecraft
Bus & Motor
Unknown
Mass
Unknown
Launch date (UTC)
1989-01-27 (37 years ago)
Launch vehicle
Unknown
Launch site
French Guiana (FRGUI)
Object type
Payload
Rocket body
Debris
Shape & HBR
Unknown shape, 1.1 m
Radar Cross Section
Medium (>0.1 m² and <1 m²)

Expand to show TLE details & history
Last TLE update: 2 days ago

TLE from 2 days ago
0 ARIANE 2 DEB
1 28566U 89006AH  26171.44453115  .00000721  00000-0  87561-2 0  9993
2 28566   6.5830 184.4378 7142265 242.7842  29.6506  2.29414800  2260
Epoch: 2026-06-20T10:40Z
TLE epoch observation values (Epoch: 2026-06-20T10:40:07.491Z)
Latitude
-0°
Longitude
115.63734°
Altitude
11,220.054 km
Speed
5.374 km/s
True Right ascension
12h 17m 18s
True Declination
0° 00' 00"
Sunlit
Object was in daylight at epoch
Visualization orbit readout
Latitude
Unknown
Longitude
Unknown
Altitude
Unknown
Speed
Unknown
Apparent Right ascension
Unknown
Apparent Declination
Unknown
Sunlit
N/A
Visualization observer readout
Local Sidereal Time
00:49:57
Azimuth
Unknown
Elevation
Unknown
Doppler factor
Unknown
Orbital elements
Apogee altitude
35,259.118 km
Perigee altitude
563.084 km
Semi-major axis
24,289.238 km
Eccentricity
0.71423
Inclination
6.583°
RAAN
184.4378°
Arg. of periapsis
242.7842°
True anomaly
117.08903°
Mean anomaly
29.6506°
Eccentric anomaly
67.44183°
Mean motion
0.57335 °/min
Orbital period
627.89 mins
BSTAR
0.0087561
Loading maneuver chart data...
Computing Atmospheric mass density...
Loading historical data...
Loading historical data...
Loading historical data...
Loading historical data...
Loading historical data...
Loading historical data...
Loading historical data...

Documentation

Showing up to 5 results
|